User: anonymous   Login
Location: *
(33.8649°S, 62.1526°E)
Time: 05:14:10
(UTC+00:00)
Language:

CZ-2C R/B - Orbit

View from above orbital plane
View from above orbital plane
View from above satellite
View from above satellite

Ground track
Ground track

The orbit data is extracted from the following two-line orbital elements,

1 28222U 04012C   21101.93721646  .00000750  00000-0  48040-4 0  9998
2 28222  97.7212  72.1061 0048368  88.9545 336.8467 15.10791342931059
Epoch (UTC): 11 April 2021 22:29:35
Eccentricity: 0.0048368
inclination: 97.7212°
perigee height: 500 km
apogee height: 567 km
right ascension of ascending node: 72.1061°
argument of perigee: 88.9545°
revolutions per day: 15.10791342
mean anomaly at epoch: 336.8467°
orbit number at epoch: 93105

The dashed part of the orbit path shows where the satellite is in the earth's shadow,  

DLR